Content
SEND FEEDBACK

Daily
Averages
Monthly
Summary
United States of America

NAPERVILLE, ILLINOIS


Home > North America > United States > Illinois
Elevation: 687 feet     Latitude: 41 49N     Longitude: 088 04W

WEATHER
 
SELECT A DAY
Number of Records: 196,733;   Date Range: 1/1/95 - 9/3/14
 
SHARE

PRINT THIS DATA

[ ← Previous Day ]
WEATHER ALMANAC - OCTOBER 8, 2013
[ Next Day → ]
[ °C ]   °F
We're sorry. There is no daily almanac available for Naperville, Illinois on October 8, 2013.
WEATHER BY HOUR - OCTOBER 8, 2013
[ °C ]   °F
Local TimeTemperatureDewpointHumidityBarometerVisibilityWind DirectionWind SpeedGust SpeedPrecipitationEventsConditions
1:51 AM48.0 °F46.0 °F93 %30.10 in10.0 miSouth (190°)3.5 mphClear
2:51 AM48.0 °F46.0 °F93 %30.09 in10.0 miCalmClear
3:51 AM44.1 °F44.1 °F100 %30.10 in10.0 miCalmClear
4:51 AM46.9 °F45.0 °F93 %30.11 in10.0 miCalmClear
5:51 AM45.0 °F43.0 °F93 %30.14 in10.0 miSouth (190°)3.5 mphClear
6:51 AM46.9 °F45.0 °F93 %30.15 in10.0 miCalmClear
7:51 AM48.9 °F46.9 °F93 %30.16 in10.0 miCalmClear
8:51 AM55.0 °F48.9 °F80 %30.18 in10.0 miSSW (210°)3.5 mphClear
9:51 AM60.1 °F50.0 °F69 %30.19 in10.0 miSSE (160°)4.6 mphClear
10:51 AM64.9 °F51.1 °F61 %30.18 in10.0 miSSW (200°)4.6 mphClear
11:51 AM70.0 °F51.1 °F51 %30.17 in10.0 miVariable5.8 mphClear
12:51 PM73.0 °F48.0 °F41 %30.16 in10.0 miSW (220°)8.1 mphClear
1:51 PM73.9 °F46.0 °F37 %30.14 in10.0 miSW (230°)9.2 mphClear
2:51 PM73.9 °F46.9 °F38 %30.13 in10.0 miSSW (200°)9.2 mphClear
3:51 PM75.0 °F48.9 °F40 %30.12 in10.0 miSouth (180°)9.2 mphClear
4:51 PM73.9 °F48.0 °F40 %30.13 in10.0 miSouth (190°)8.1 mphClear
5:51 PM70.0 °F48.0 °F46 %30.13 in10.0 miSouth (180°)9.2 mphPartly Cloudy
6:51 PM64.0 °F50.0 °F60 %30.14 in10.0 miSE (130°)9.2 mphPartly Cloudy
7:51 PM62.1 °F50.0 °F65 %30.14 in10.0 miSE (130°)9.2 mphPartly Cloudy
8:51 PM59.0 °F50.0 °F72 %30.16 in10.0 miSSE (150°)10.4 mphClear
9:51 PM60.1 °F50.0 °F69 %30.16 in10.0 miSouth (170°)8.1 mphClear
10:51 PM59.0 °F48.0 °F67 %30.16 in10.0 miSouth (180°)8.1 mphClear
11:51 PM57.9 °F48.0 °F70 %30.16 in10.0 miSouth (190°)6.9 mphClear
Hourly data recorded from KORD, located miles away from Naperville, Illinois







STORIES FROM OUR PARTNERS